Weather History for KAVK - October, 2012

Change the Weather History Date:

Monday, October 8, 2012

  Actual Average (KP28) Record (KP28)
Temperature  
Mean Temperature 50 °F 62 °F  
Max Temperature 68 °F 74 °F 99 °F (1979)
Min Temperature 32 °F 49 °F 26 °F (1952)
Degree Days  
Heating Degree Days 15 5  
Month to date heating degree days 35  
Since 1 July heating degree days 69  
Cooling Degree Days 0 2  
Month to date cooling degree days 21  
Year to date cooling degree days 1752  
Moisture  
Dew Point 32 °F    
Average Humidity 54    
Maximum Humidity 87    
Minimum Humidity 26    
Precipitation  
Precipitation 0.00 in 0.08 in 1.75 in (1992)
Month to date precipitation 0.69  
Year to date precipitation 23.14  
Snow  
Snow 0.00 in 0.00 in - ()
Month to date snowfall 0.0  
Since 1 July snowfall 0.0  
Since 1 September snowfall 0.0  
Snow Depth -    
Sea Level Pressure  
Sea Level Pressure 30.07 in    
Wind  
Wind Speed 12 mph (SSW)    
Max Wind Speed 22 mph    
Max Gust Speed 28 mph    
Visibility 10 miles    
Events      
T = Trace of Precipitation, MM = Missing Value Source: NWS Daily Summary

Daily Weather History Graph

Daily Weather History Graph

Search for Another Location

Airport or City:

Trip Planner

Search our weather history database for the weather conditions in past years. The results will help you decide how hot, cold, wet, or windy it might be!

Date:

Astronomy

Oct. 08, 2012 Rise Set
Actual Time 7:36 AM CDT 7:07 PM CDT
Civil Twilight 7:10 AM CDT 7:33 PM CDT
Nautical Twilight 6:40 AM CDT 8:02 PM CDT
Astronomical Twilight 6:10 AM CDT 8:32 PM CDT
Moon 12:27 AM CDT (10/8) 2:48 PM CDT (10/8)
Length of Visible Light 12h 22m
Length of Day
11h 30m
Last Quarter, 46% of the Moon is Illuminated
Oct 8
Last Quarter
Oct 15
New
Oct 21
First Quarter
Oct 29
Full
Nov 6
Last Quarter

Hourly Weather History & Observations

Time (CDT) Temp. Windchill Dew Point Humidity Pressure Visibility Wind Dir Wind Speed Gust Speed Precip Events Conditions
12:00 AM 39.2 °F 33.0 °F 28.4 °F 65% 30.19 in 10.0 mi SW 9.2 mph - N/A   Clear
12:20 AM 39.2 °F 32.5 °F 28.4 °F 65% 30.19 in 10.0 mi SW 10.4 mph - N/A   Clear
12:40 AM 39.2 °F 32.0 °F 28.4 °F 65% 30.19 in 10.0 mi SW 11.5 mph - N/A   Clear
1:00 AM 39.2 °F 31.6 °F 28.4 °F 65% 30.19 in 10.0 mi SW 12.7 mph 18.4 mph N/A   Clear
1:20 AM 39.2 °F 32.5 °F 28.4 °F 65% 30.19 in 10.0 mi SW 10.4 mph - N/A   Clear
1:40 AM 37.4 °F 30.8 °F 28.4 °F 70% 30.19 in 10.0 mi SW 9.2 mph - N/A   Clear
2:00 AM 37.4 °F 31.4 °F 28.4 °F 70% 30.19 in 10.0 mi WSW 8.1 mph - N/A   Clear
2:20 AM 35.6 °F 29.2 °F 28.4 °F 75% 30.18 in 10.0 mi SW 8.1 mph - N/A   Scattered Clouds
2:40 AM 33.8 °F 27.7 °F 28.4 °F 81% 30.17 in 10.0 mi SW 6.9 mph - N/A   Mostly Cloudy
3:00 AM 33.8 °F 25.8 °F 28.4 °F 81% 30.17 in 10.0 mi SW 10.4 mph - N/A   Mostly Cloudy
3:20 AM 35.6 °F 28.6 °F 28.4 °F 75% 30.17 in 10.0 mi SW 9.2 mph - N/A   Mostly Cloudy
3:40 AM 33.8 °F 26.4 °F 28.4 °F 81% 30.16 in 10.0 mi SW 9.2 mph - N/A   Mostly Cloudy
4:00 AM 33.8 °F 26.4 °F 28.4 °F 81% 30.16 in 10.0 mi SW 9.2 mph - N/A   Mostly Cloudy
4:20 AM 35.6 °F 28.0 °F 28.4 °F 75% 30.15 in 10.0 mi SW 10.4 mph - N/A   Mostly Cloudy
4:40 AM 33.8 °F 27.7 °F 28.4 °F 81% 30.14 in 10.0 mi SW 6.9 mph - N/A   Mostly Cloudy
5:00 AM 32.0 °F 24.8 °F 28.4 °F 87% 30.14 in 10.0 mi SSW 8.1 mph - N/A   Mostly Cloudy
5:20 AM 33.8 °F 27.0 °F 28.4 °F 81% 30.14 in 10.0 mi SSW 8.1 mph - N/A   Mostly Cloudy
5:40 AM 35.6 °F 29.2 °F 28.4 °F 75% 30.14 in 10.0 mi SW 8.1 mph - N/A   Mostly Cloudy
6:00 AM 32.0 °F 24.8 °F 28.4 °F 87% 30.14 in 10.0 mi SSW 8.1 mph - N/A   Scattered Clouds
6:20 AM 32.0 °F 24.8 °F 28.4 °F 87% 30.14 in 10.0 mi SSW 8.1 mph - N/A   Scattered Clouds
6:40 AM 32.0 °F 23.0 °F 28.4 °F 87% 30.14 in 10.0 mi SSW 11.5 mph - N/A   Scattered Clouds
7:00 AM 33.8 °F 25.8 °F 28.4 °F 81% 30.14 in 10.0 mi SSW 10.4 mph - N/A   Partly Cloudy
7:20 AM 33.8 °F 25.8 °F 28.4 °F 81% 30.14 in 10.0 mi SSW 10.4 mph - N/A   Clear
7:40 AM 35.6 °F 28.6 °F 28.4 °F 75% 30.14 in 10.0 mi SSW 9.2 mph - N/A   Clear
8:00 AM 37.4 °F 30.3 °F 30.2 °F 75% 30.14 in 10.0 mi SSW 10.4 mph - N/A   Clear
8:20 AM 39.2 °F 32.0 °F 30.2 °F 70% 30.14 in 10.0 mi SSW 11.5 mph - N/A   Clear
8:40 AM 41.0 °F 33.9 °F 32.0 °F 70% 30.14 in 10.0 mi SW 12.7 mph - N/A   Clear
9:00 AM 44.6 °F 37.4 °F 32.0 °F 61% 30.14 in 10.0 mi SW 16.1 mph - N/A   Clear
9:20 AM 46.4 °F 39.8 °F 32.0 °F 57% 30.14 in 10.0 mi SW 16.1 mph - N/A   Clear
9:40 AM 48.2 °F - 32.0 °F 54% 30.14 in 10.0 mi SW 13.8 mph - N/A   Clear
10:00 AM 50.0 °F - 32.0 °F 50% 30.13 in 10.0 mi SW 13.8 mph - N/A   Clear
10:20 AM 53.6 °F - 32.0 °F 44% 30.13 in 10.0 mi SW 13.8 mph 18.4 mph N/A   Clear
10:40 AM 55.4 °F - 32.0 °F 41% 30.12 in 10.0 mi SW 11.5 mph 18.4 mph N/A   Clear
11:00 AM 57.2 °F - 32.0 °F 38% 30.11 in 10.0 mi SW 15.0 mph - N/A   Clear
11:20 AM 57.2 °F - 32.0 °F 38% 30.10 in 10.0 mi SSW 15.0 mph - N/A   Clear
11:40 AM 59.0 °F - 32.0 °F 36% 30.10 in 10.0 mi SSW 12.7 mph 18.4 mph N/A   Clear
12:00 PM 62.6 °F - 32.0 °F 32% 30.09 in 10.0 mi SSW 11.5 mph 17.3 mph N/A   Clear
12:20 PM 64.4 °F - 33.8 °F 32% 30.08 in 10.0 mi SSW 12.7 mph 17.3 mph N/A   Clear
12:40 PM 64.4 °F - 32.0 °F 30% 30.07 in 10.0 mi SSW 17.3 mph 21.9 mph N/A   Clear
1:00 PM 66.2 °F - 32.0 °F 28% 30.06 in 10.0 mi SSW 18.4 mph 25.3 mph N/A   Clear
1:20 PM 66.2 °F - 32.0 °F 28% 30.05 in 10.0 mi SSW 17.3 mph 25.3 mph N/A   Clear
1:40 PM 66.2 °F - 32.0 °F 28% 30.04 in 10.0 mi SW 16.1 mph 24.2 mph N/A   Clear
2:00 PM 68.0 °F - 32.0 °F 26% 30.02 in 10.0 mi South 17.3 mph 25.3 mph N/A   Clear
2:20 PM 68.0 °F - 32.0 °F 26% 30.01 in 10.0 mi SW 19.6 mph 25.3 mph N/A   Clear
3:00 PM 68.0 °F - 32.0 °F 26% 29.98 in 10.0 mi SSW 16.1 mph 27.6 mph N/A   Clear
3:20 PM 68.0 °F - 32.0 °F 26% 29.98 in 10.0 mi South 18.4 mph 23.0 mph N/A   Clear
3:40 PM 68.0 °F - 32.0 °F 26% 29.98 in 10.0 mi SSW 19.6 mph 26.5 mph N/A   Clear
4:00 PM 68.0 °F - 32.0 °F 26% 29.97 in 10.0 mi SSW 19.6 mph 27.6 mph N/A   Clear
4:20 PM 68.0 °F - 32.0 °F 26% 29.97 in 10.0 mi South 19.6 mph 26.5 mph N/A   Clear
4:40 PM 66.2 °F - 33.8 °F 30% 29.96 in 10.0 mi SSW 20.7 mph 25.3 mph N/A   Clear
5:00 PM 66.2 °F - 33.8 °F 30% 29.96 in 10.0 mi SSW 19.6 mph 25.3 mph N/A   Clear
5:20 PM 64.4 °F - 33.8 °F 32% 29.96 in 10.0 mi SSW 21.9 mph 27.6 mph N/A   Clear
5:40 PM 62.6 °F - 33.8 °F 34% 29.96 in 10.0 mi SSW 16.1 mph 24.2 mph N/A   Clear
6:00 PM 62.6 °F - 33.8 °F 34% 29.96 in 10.0 mi South 17.3 mph 21.9 mph N/A   Clear
6:20 PM 60.8 °F - 35.6 °F 39% 29.96 in 10.0 mi South 15.0 mph 20.7 mph N/A   Clear
6:40 PM 59.0 °F - 35.6 °F 42% 29.96 in 10.0 mi South 13.8 mph - N/A   Clear
7:00 PM 57.2 °F - 33.8 °F 41% 29.96 in 10.0 mi South 13.8 mph - N/A   Clear
7:20 PM 55.4 °F - 33.8 °F 44% 29.96 in 10.0 mi South 10.4 mph - N/A   Clear
8:00 PM 55.4 °F - 33.8 °F 44% 29.96 in 10.0 mi South 12.7 mph 17.3 mph N/A   Clear
8:20 PM 55.4 °F - 33.8 °F 44% 29.96 in 10.0 mi South 13.8 mph - N/A   Partly Cloudy
9:00 PM 53.6 °F - 35.6 °F 51% 29.96 in 10.0 mi South 11.5 mph - N/A   Clear
9:20 PM 53.6 °F - 35.6 °F 51% 29.96 in 10.0 mi South 12.7 mph - N/A   Partly Cloudy
9:40 PM 53.6 °F - 35.6 °F 51% 29.97 in 10.0 mi South 12.7 mph - N/A   Clear
10:00 PM 51.8 °F - 35.6 °F 54% 29.96 in 10.0 mi South 13.8 mph - N/A   Partly Cloudy
10:20 PM 51.8 °F - 35.6 °F 54% 29.96 in 10.0 mi South 12.7 mph - N/A   Partly Cloudy
10:40 PM 51.8 °F - 35.6 °F 54% 29.96 in 10.0 mi South 15.0 mph - N/A   Partly Cloudy
11:00 PM 50.0 °F - 35.6 °F 58% 29.97 in 10.0 mi South 13.8 mph - N/A   Partly Cloudy
11:20 PM 50.0 °F - 35.6 °F 58% 29.96 in 10.0 mi South 15.0 mph - N/A   Partly Cloudy
11:40 PM 50.0 °F - 35.6 °F 58% 29.96 in 10.0 mi South 12.7 mph - N/A   Partly Cloudy